Location: Clarion
(42.7316°N, 93.7330°W)
Time: 21:01:32
(UTC+00:00)

Cosmos 2219 Rocket - Pass Details

Date: 22 April 2026
Orbit: 826 x 845 km, 71.0° (Epoch: 12 May)

Event Time Altitude Azimuth Distance (km) Brightness Sun altitude
Rises 08:02:11 0° 344° (NNW) 3,392 5.9 -29.6°
Reaches altitude 10° 08:05:04 10° 357° (N) 2,457 5.3 -29.4°
Maximum altitude 08:09:42 26° 53° (NE) 1,615 4.2 -28.9°
Drops below altitude 10° 08:14:20 10° 108° (ESE) 2,456 4.8 -28.4°
Sets 08:17:11 0° 121° (ESE) 3,390 5.4 -28.2°
